Home   Weather   Inverness   Past weeks

Flag for United Kingdom Past Weather in Inverness, Scotland, United Kingdom — Yesterday and Last 2 Weeks

Now
52 °F

Passing clouds.


Feels Like: 50 °F
Forecast: 51 / 65 °F
Wind: 6 mph from Southwest

Location: Inverness / Dalcross

Current Time: Jul 27, 2017 at 8:06:48 am

Latest Report: Jul 27, 2017 at 7:20 am


Visibility: N/A

Pressure: 29.39 "Hg

Humidity: 77%

Dew Point: 45 °F

Location of InvernessLocation

Past Weather in Inverness — Graph

°F

Inverness Temperature Yesterday

Maximum temperature yesterday: 66 °F (at 2:50 pm)
Minimum temperature yesterday: 48 °F (at 4:20 am)
Average temperature yesterday: 57 °F

High & Low Weather Summary for the Past Weeks

 TemperatureHumidityPressure
High77 °F (Jul 18, 5:50 pm)100% (Jul 13, 5:20 am)30.18 "Hg (Jul 13, 5:20 am)
Low43 °F (Jul 13, 2:50 am)41% (Jul 17, 4:50 pm)29.30 "Hg (Jul 26, 2:50 pm)
Average59 °F80%29.89 "Hg
* Reported Jul 12 6:20 am — Jul 27 6:50 am, Inverness. Weather by CustomWeather, © 2017

Note: Actual official high and low records may vary slightly from our data, if they occured in-between our weather recording intervals... More about our weather records

Advertising

Inverness Weather History for the Previous 24 Hours

Scroll right to see more
 ConditionsComfort  
Time TempWeatherWind HumidityBarometerVisibility
6:50 am
Thu, Jul 27
52 °FPassing clouds.6 mph77%29.39 "HgN/A
6:20 am52 °FPassing clouds.12 mph77%29.39 "HgN/A
5:50 am52 °FPassing clouds.8 mph82%29.39 "HgN/A
5:20 am52 °FScattered clouds.12 mph82%29.39 "HgN/A
4:50 am52 °FPassing clouds.12 mph88%29.39 "HgN/A
4:20 am52 °FPassing clouds.13 mph82%29.39 "HgN/A
3:50 am54 °FPassing clouds.12 mph82%29.36 "HgN/A
3:20 am52 °FPassing clouds.9 mph88%29.36 "HgN/A
2:50 am52 °FPassing clouds.9 mph88%29.36 "HgN/A
1:50 am52 °FCool.13 mph88%29.36 "HgN/A
1:20 am54 °FCool.12 mph82%29.36 "HgN/A
12:50 am54 °FPassing clouds.12 mph88%29.36 "HgN/A
12:20 am50 °FPassing clouds.7 mph94%29.36 "HgN/A
11:50 pm
Wed, Jul 26
50 °FCool.7 mph94%29.36 "HgN/A
11:20 pm54 °FPassing clouds.13 mph88%29.39 "HgN/A
10:50 pm52 °FCool.9 mph88%29.39 "HgN/A
10:20 pm54 °FPassing clouds.9 mph82%29.39 "HgN/A
9:50 pm54 °FPassing clouds.10 mph82%29.36 "HgN/A
9:20 pm55 °FScattered clouds.12 mph82%29.36 "HgN/A
8:50 pm57 °FScattered clouds.15 mph82%29.36 "HgN/A
7:50 pm59 °FScattered clouds.20 mph77%29.33 "HgN/A
7:20 pm61 °FScattered clouds.21 mph72%29.30 "HgN/A
6:50 pm59 °FScattered showers. Scattered clouds.22 mph77%29.30 "HgN/A
6:20 pm63 °FScattered showers. Scattered clouds.22 mph73%29.30 "HgN/A
5:50 pm63 °FScattered showers. Scattered clouds.20 mph77%29.30 "HgN/A
5:20 pm63 °FScattered showers. Scattered clouds.15 mph83%29.30 "HgN/A
4:50 pm61 °FScattered showers. Scattered clouds.17 mph94%29.30 "HgN/A
4:20 pm64 °FScattered showers. Scattered clouds.18 mph88%29.30 "HgN/A
3:50 pm66 °FScattered clouds.7 mph83%29.30 "HgN/A
3:20 pm64 °FRain. Scattered clouds.7 mph83%29.30 "HgN/A
2:50 pm66 °FScattered clouds.7 mph83%29.30 "HgN/A
2:20 pm64 °FPartly sunny.2 mph94%29.33 "HgN/A
1:50 pm63 °FLight rain. Partly sunny.5 mph88%29.33 "Hg5 mi
1:20 pm59 °FRain. Partly sunny.6 mph94%29.33 "HgN/A
12:50 pm59 °FRain. Partly sunny.9 mph94%29.36 "Hg5 mi
12:20 pm59 °FRain. Partly sunny.9 mph94%29.39 "Hg5 mi
11:50 am59 °FRain. Passing clouds.8 mph88%29.42 "HgN/A
11:20 am59 °FLight rain. Scattered clouds.9 mph88%29.42 "HgN/A
10:50 am59 °FLight rain. Scattered clouds.7 mph88%29.45 "HgN/A
10:20 am59 °FLight rain. Scattered clouds.7 mph88%29.47 "HgN/A
9:50 am59 °FPassing clouds.8 mph82%29.47 "HgN/A
9:20 am59 °FPassing clouds.10 mph82%29.50 "HgN/A
8:50 am59 °FPassing clouds.6 mph88%29.50 "HgN/A
8:20 am59 °FPassing clouds.7 mph82%29.53 "HgN/A
Weather by CustomWeather, © 2017

See weather overviewHow to use our weather pages